Track SPACE STATION now! 10-day predictions The ISS Notification Tool HD Live streaming from Space Station SPACE STATION is classified as:
1 25544U 98067A 24278.51847516 -.02634131 00000-0 -54276-1 0 9997 2 25544 51.6341 133.8402 0007303 74.5956 18.5068 15.48940184475505